カタログに戻る

SES 18

運用中通信GEO
NORAD 55970·PAYLOAD·🇱🇺 Luxembourg

打ち上げ Mar 17, 2023 から Cape Canaveral Space Force Station

Loading…

TLE

最新Source: CelesTrak SupGP

元期: Sep 13, 2026, 23:30 UTC

1 55970C 23038A   26256.97916667 -.00000011  00000+0  00000+0 0  2561
2 55970   0.0513 272.9544 0001977 306.1820  23.2214  1.00272100    12

AllMySatでSES 18をリアルタイム追跡

Download on the App Store